Simultaneous Nadir Overpasses (SNOs) Predictions

Prediction of SNOs between GOES-17 and METOP-B Satellite Orbit:

Table of predicted SNOs for the next 14.0 days since TLE Epoch: 2/11/2023
Index Date Time (GOES-17) GOES-17 Lat,Lon METOP-B Lat,Lon Distance(km) Time Diff (sec)
1 02/11/2023 16:30:18 0.00,-103.06 0.51,-105.25 250.80 80
2 02/12/2023 16:12:16 0.00,-102.28 -0.44,-100.23 233.64 80
3 02/14/2023 04:28:34 -0.00,-101.05 -0.81,-104.77 423.73 80
4 02/15/2023 04:10:31 -0.01,-100.27 0.09, -99.74 60.51 80
5 02/17/2023 16:05:58 0.01, -98.33 0.18, -99.22 101.14 80
6 02/18/2023 15:47:56 0.01, -97.55 -0.73, -94.19 383.08 80
7 02/20/2023 04:04:12 -0.01, -96.32 -0.56, -98.73 274.07 80
8 02/21/2023 03:46:10 -0.01, -95.55 0.42, -93.70 210.55 80
9 02/22/2023 16:02:18 0.01, -94.40 0.86, -98.21 434.18 80
10 02/23/2023 15:44:15 0.01, -93.62 -0.07, -93.17 50.92 80
